Printer-friendly version

IAU Minor Planet Center

Minor Planet Center

MPEC 2001-F24: 2001 FE7

The following Minor Planet Electronic Circular may be linked-to from your own Web pages, but must not otherwise be redistributed electronically.


Read MPEC 2001-F23 Read MPEC 2001-F25


M.P.E.C. 2001-F24                                Issued 2001 Mar. 21, 21:03 UT

     The Minor Planet Electronic Circulars contain information on unusual
         minor planets and routine data on comets.  They are published
   on behalf of Commission 20 of the International Astronomical Union by the
          Minor Planet Center, Smithsonian Astrophysical Observatory,
                          Cambridge, MA 02138, U.S.A.

             Prepared using the Tamkin Foundation Computer Network

                              MPC@CFA.HARVARD.EDU
          URL http://cfa-www.harvard.edu/iau/mpc.html  ISSN 1523-6714

                                   2001 FE7

Observations:
     K01F07E* C2001 03 19.26503 11 18 34.52 +09 15 07.3          19.3        704
     K01F07E  C2001 03 19.27904 11 18 37.80 +09 13 18.5          18.8        704
     K01F07E  C2001 03 19.29293 11 18 40.97 +09 11 31.5          18.7        704
     K01F07E  C2001 03 19.30579 11 18 44.03 +09 09 52.2          18.9        704
     K01F07E  C2001 03 20.18302 11 22 48.31 +07 15 17.0          18.4        649
     K01F07E  C2001 03 20.18389 11 22 48.49 +07 15 09.1          18.9        649
     K01F07E  C2001 03 20.18470 11 22 48.70 +07 15 05.2          18.9        649
     K01F07E  C2001 03 20.23632 11 23 02.59 +07 08 22.1          18.9        704
     K01F07E  C2001 03 20.24890 11 23 05.56 +07 06 42.2          19.3        704
     K01F07E  C2001 03 20.26234 11 23 08.79 +07 04 56.1          19.5        704
     K01F07E  C2001 03 20.27469 11 23 11.63 +07 03 18.8          19.6        704
     K01F07E  C2001 03 20.28704 11 23 14.63 +07 01 38.9          19.4        704
     K01F07E  C2001 03 21.29889 11 27 57.83 +04 46 12.8          18.8 R      926
     K01F07E  C2001 03 21.29939 11 27 57.93 +04 46 07.9          19.0 R      926
     K01F07E  C2001 03 21.29988 11 27 58.04 +04 46 04.4          19.1 R      926

Observer details:
649 Powell Observatory, Louisburg.  Observers M. Kirk, D. Young.  Measurer
    E. Flescher.  0.75-m Newtonian + CCD.
704 Lincoln Laboratory ETS, New Mexico.  Observers M. Blythe, F. Shelly,
    M. Bezpalko, R. Huber, L. Manguso, S. Adams.  Measurers J. Stuart,
    R. Sayer, J. B. Evans, H. Viggh.  1.0-m f/2.15 reflector + CCD.
926 Tenagra II Observatory.  Observers M. Schwartz, P. R. Holvorcem.
    0.5-m f/10 Ritchey-Chretien + CCD.

Orbital elements:
2001 FE7
Epoch 2001 Mar. 12.0 TT = JDT 2451980.5                 Spahr
M 356.64808              (2000.0)            P               Q
n   0.32707947     Peri.  180.21015     -0.99984722     +0.01741059
a   2.0862540      Node     0.79246     -0.01586911     -0.86694317
e   0.4846320      Incl.    6.43932     -0.00732844     -0.49810282
P   3.01           H   23.3           G   0.15
From 15 observations 2001 Mar. 19-21.

Ephemeris:
2001 FE7                 a,e,i = 2.09, 0.48, 6                   q = 1.0752
Date    TT    R. A. (2000) Decl.     Delta      r     Elong.  Phase     V
2001 03 12    10 48.27   +22 42.6    0.094    1.082   158.3    19.8    19.3
2001 03 22    11 31.28   +03 11.7    0.080    1.075   170.7     8.6    18.6
2001 04 01    12 20.53   -19 01.7    0.085    1.081   164.6    14.2    18.9
2001 04 11    13 06.64   -33 57.9    0.107    1.099   154.2    23.4    19.7
2001 04 21    13 42.54   -41 03.7    0.139    1.128   150.6    25.9    20.5
2001 05 01    14 07.91   -43 32.4    0.178    1.166   151.0    24.8    21.0
2001 05 11    14 26.01   -43 38.3    0.224    1.213   152.5    22.6    21.6
2001 05 21    14 39.97   -42 31.9    0.278    1.266   153.1    21.2    22.1

Timothy B. Spahr             (C) Copyright 2001 MPC           M.P.E.C. 2001-F24

Read MPEC 2001-F23 Read MPEC 2001-F25


Our Web policy. Index to the CBAT/MPC/ICQ pages.


Valid HTML 4.01!